| time (UTC) | temp F | wind direction | speed knots | gust knots | rain 1hr in | rain 24hr in | rain mn in | humidity % | barometer mb |
| 20260504001452 | 77 | 332 | 3.5 | 9.6 | 0.00 | 0.00 | 0.00 | 41 | |
| 20260504000948 | 77 | 304 | 4.3 | 9.6 | 0.00 | 0.00 | 0.00 | 41 | |
| 20260504000445 | 76 | 344 | 1.7 | 7.0 | 0.00 | 0.00 | 0.00 | 43 | |
| 20260503235943 | 76 | 305 | 3.5 | 8.7 | 0.00 | 0.00 | 0.00 | 44 | |
| 20260503235440 | 76 | 289 | 2.6 | 11.3 | 0.00 | 0.00 | 0.00 | 43 | |
| 20260503234937 | 76 | 317 | 2.6 | 7.0 | 0.00 | 0.00 | 0.00 | 44 | |
| 20260503234435 | 76 | 342 | 1.7 | 7.8 | 0.00 | 0.00 | 0.00 | 45 | |
| 20260503233933 | 75 | 320 | 0.9 | 12.2 | 0.00 | 0.00 | 0.00 | 46 | |
| 20260503233429 | 75 | 312 | 3.5 | 15.6 | 0.00 | 0.00 | 0.00 | 45 | |
| 20260503232926 | 75 | 292 | 4.3 | 8.7 | 0.00 | 0.00 | 0.00 | 44 | |
| 20260503232422 | 75 | 333 | 2.6 | 10.4 | 0.00 | 0.00 | 0.00 | 46 | |
| 20260503231920 | 75 | 315 | 3.5 | 13.0 | 0.00 | 0.00 | 0.00 | 46 | |
| 20260503231418 | 75 | 359 | 1.7 | 11.3 | 0.00 | 0.00 | 0.00 | 46 | |
| 20260503230914 | 75 | 276 | 3.5 | 7.8 | 0.00 | 0.00 | 0.00 | 44 | |
| 20260503230410 | 76 | 264 | 2.6 | 6.1 | 0.00 | 0.00 | 0.00 | 45 | |
| 20260503225908 | 75 | 272 | 2.6 | 13.0 | 0.00 | 0.00 | 0.00 | 45 | |
| 20260503225404 | 76 | 296 | 4.3 | 7.8 | 0.00 | 0.00 | 0.00 | 45 | |
| 20260503224900 | 75 | 335 | 4.3 | 8.7 | 0.00 | 0.00 | 0.00 | 44 | |
| 20260503224357 | 76 | 301 | 4.3 | 8.7 | 0.00 | 0.00 | 0.00 | 43 | |
| 20260503223855 | 75 | 324 | 2.6 | 10.4 | 0.00 | 0.00 | 0.00 | 44 | |
| 20260503223353 | 75 | 297 | 3.5 | 9.6 | 0.00 | 0.00 | 0.00 | 43 | |
| 20260503222848 | 74 | 282 | 2.6 | 11.3 | 0.00 | 0.00 | 0.00 | 45 | |
| 20260503222347 | 75 | 22 | 2.6 | 8.7 | 0.00 | 0.00 | 0.00 | 43 | |
| 20260503221845 | 75 | 352 | 2.6 | 12.2 | 0.00 | 0.00 | 0.00 | 46 | |
| 20260503221343 | 75 | 353 | 4.3 | 9.6 | 0.00 | 0.00 | 0.00 | 43 | |
| 20260503220838 | 75 | 337 | 2.6 | 9.6 | 0.00 | 0.00 | 0.00 | 42 | |
| 20260503220336 | 75 | 356 | 2.6 | 11.3 | 0.00 | 0.00 | 0.00 | 43 | |
| 20260503215833 | 75 | 275 | 1.7 | 12.2 | 0.00 | 0.00 | 0.00 | 44 | |
| 20260503215330 | 75 | 307 | 5.2 | 8.7 | 0.00 | 0.00 | 0.00 | 45 | |
| 20260503214827 | 74 | 322 | 3.5 | 12.2 | 0.00 | 0.00 | 0.00 | 47 | |
| 20260503214325 | 74 | 338 | 1.7 | 12.2 | 0.00 | 0.00 | 0.00 | 50 | |
| 20260503213822 | 74 | 329 | 1.7 | 9.6 | 0.00 | 0.00 | 0.00 | 49 | |
| 20260503213319 | 73 | 331 | 3.5 | 10.4 | 0.00 | 0.00 | 0.00 | 49 | |
| 20260503212816 | 73 | 317 | 1.7 | 8.7 | 0.00 | 0.00 | 0.00 | 51 | |
| 20260503212314 | 72 | 314 | 5.2 | 8.7 | 0.00 | 0.00 | 0.00 | 53 | |
| 20260503211811 | 73 | 298 | 4.3 | 10.4 | 0.00 | 0.00 | 0.00 | 52 | |
| 20260503211308 | 74 | 317 | 3.5 | 8.7 | 0.00 | 0.00 | 0.00 | 49 | |
| 20260503210808 | 75 | 292 | 5.2 | 7.0 | 0.00 | 0.00 | 0.00 | 48 | |
| 20260503210306 | 75 | 129 | 0.0 | 9.6 | 0.00 | 0.00 | 0.00 | 47 | |
| 20260503205800 | 74 | 298 | 2.6 | 7.8 | 0.00 | 0.00 | 0.00 | 46 | |
| 20260503205257 | 74 | 341 | 2.6 | 5.2 | 0.00 | 0.00 | 0.00 | 49 | |
| 20260503204754 | 74 | 318 | 2.6 | 4.3 | 0.00 | 0.00 | 0.00 | 47 | |
| 20260503204251 | 74 | 276 | 1.7 | 7.8 | 0.00 | 0.00 | 0.00 | 47 | |
| 20260503203749 | 74 | 346 | 2.6 | 6.1 | 0.00 | 0.00 | 0.00 | 47 | |
| 20260503203246 | 73 | 313 | 3.5 | 9.6 | 0.00 | 0.00 | 0.00 | 48 | |
| 20260503202743 | 72 | 325 | 2.6 | 10.4 | 0.00 | 0.00 | 0.00 | 48 | |
| 20260503202241 | 72 | 346 | 2.6 | 9.6 | 0.00 | 0.00 | 0.00 | 51 | |
| 20260503201738 | 72 | 314 | 7.8 | 9.6 | 0.00 | 0.00 | 0.00 | 48 | |
| 20260503201236 | 72 | 342 | 2.6 | 10.4 | 0.00 | 0.00 | 0.00 | 48 | |
| 20260503200732 | 72 | 287 | 1.7 | 9.6 | 0.00 | 0.00 | 0.00 | 48 | |
| 20260503200228 | 72 | 282 | 3.5 | 10.4 | 0.00 | 0.00 | 0.00 | 49 | |
| 20260503195725 | 72 | 348 | 2.6 | 9.6 | 0.00 | 0.00 | 0.00 | 50 | |
| 20260503195222 | 73 | 321 | 2.6 | 7.8 | 0.00 | 0.00 | 0.00 | 49 | |
| 20260503194720 | 72 | 304 | 2.6 | 9.6 | 0.00 | 0.00 | 0.00 | 51 | |
| 20260503194215 | 72 | 294 | 5.2 | 9.6 | 0.00 | 0.00 | 0.00 | 53 | |
| 20260503193712 | 71 | 338 | 0.0 | 8.7 | 0.00 | 0.00 | 0.00 | 55 | |
| 20260503193208 | 73 | 310 | 0.9 | 6.1 | 0.00 | 0.00 | 0.00 | 54 | |
| 20260503192704 | 72 | 342 | 3.5 | 7.8 | 0.00 | 0.00 | 0.00 | 54 | |
| 20260503192159 | 72 | 339 | 2.6 | 8.7 | 0.00 | 0.00 | 0.00 | 53 | |
| 20260503191656 | 72 | 333 | 2.6 | 8.7 | 0.00 | 0.00 | 0.00 | 54 | |
| 20260503191153 | 72 | 359 | 1.7 | 9.6 | 0.00 | 0.00 | 0.00 | 54 | |
| 20260503190650 | 71 | 309 | 2.6 | 9.6 | 0.00 | 0.00 | 0.00 | 55 | |
| 20260503190147 | 71 | 315 | 1.7 | 7.0 | 0.00 | 0.00 | 0.00 | 56 | |
| 20260503185643 | 71 | 288 | 3.5 | 6.1 | 0.00 | 0.00 | 0.00 | 58 | |
| 20260503185139 | 70 | 298 | 4.3 | 9.6 | 0.00 | 0.00 | 0.00 | 59 | |
| 20260503184634 | 70 | 242 | 2.6 | 4.3 | 0.00 | 0.00 | 0.00 | 60 | |
| 20260503184130 | 69 | 253 | 1.7 | 4.3 | 0.00 | 0.00 | 0.00 | 61 | |
| 20260503183627 | 68 | 274 | 2.6 | 6.1 | 0.00 | 0.00 | 0.00 | 62 | |
| 20260503183124 | 68 | 250 | 0.0 | 4.3 | 0.00 | 0.00 | 0.00 | 64 | |
| 20260503182623 | 67 | 318 | 2.6 | 6.1 | 0.00 | 0.00 | 0.00 | 65 | |
| 20260503182121 | 67 | 333 | 4.3 | 7.8 | 0.00 | 0.00 | 0.00 | 65 | |
| 20260503181617 | 66 | 280 | 2.6 | 6.1 | 0.00 | 0.00 | 0.00 | 66 | |
| 20260503181114 | 65 | 307 | 2.6 | 8.7 | 0.00 | 0.00 | 0.00 | 68 | |
| 20260503180611 | 66 | 304 | 6.1 | 7.8 | 0.00 | 0.00 | 0.00 | 66 | |
| 20260503180109 | 66 | 320 | 2.6 | 6.1 | 0.00 | 0.00 | 0.00 | 67 | |
| 20260503175605 | 66 | 302 | 3.5 | 7.0 | 0.00 | 0.00 | 0.00 | 67 | |
| 20260503175103 | 64 | 304 | 4.3 | 8.7 | 0.00 | 0.00 | 0.00 | 69 | |
| 20260503174559 | 65 | 301 | 2.6 | 4.3 | 0.00 | 0.00 | 0.00 | 68 | |
| 20260503174056 | 65 | 248 | 4.3 | 7.8 | 0.00 | 0.00 | 0.00 | 68 | |
| 20260503173551 | 64 | 301 | 3.5 | 7.8 | 0.00 | 0.00 | 0.00 | 69 | |
| 20260503173048 | 65 | 295 | 4.3 | 7.8 | 0.00 | 0.00 | 0.00 | 68 | |
| 20260503172545 | 65 | 316 | 4.3 | 9.6 | 0.00 | 0.00 | 0.00 | 68 | |
| 20260503172042 | 65 | 339 | 2.6 | 7.0 | 0.00 | 0.00 | 0.00 | 69 | |
| 20260503171539 | 65 | 307 | 2.6 | 7.0 | 0.00 | 0.00 | 0.00 | 68 | |
| 20260503171036 | 64 | 350 | 3.5 | 7.8 | 0.00 | 0.00 | 0.00 | 70 | |
| 20260503170532 | 64 | 1 | 1.7 | 9.6 | 0.00 | 0.00 | 0.00 | 70 | |
| 20260503150925 | 61 | 274 | 1.7 | 5.2 | 0.00 | 0.00 | 0.00 | 73 | |
| 20260503150421 | 62 | 344 | 1.7 | 5.2 | 0.00 | 0.00 | 0.00 | 73 | |
| 20260503131314 | 53 | 99 | 2.6 | 2.6 | 0.00 | 0.00 | 0.00 | 88 | |
| 20260503130812 | 52 | 65 | 1.7 | 2.6 | 0.00 | 0.00 | 0.00 | 88 | |
| 20260503130309 | 53 | 61 | 1.7 | 2.6 | 0.00 | 0.00 | 0.00 | 87 | |
| 20260503110703 | 55 | 37 | 0.9 | 1.7 | 0.00 | 0.00 | 0.00 | 83 | |
| 20260503110200 | 55 | 17 | 0.0 | 1.7 | 0.00 | 0.00 | 0.00 | 82 | |
| 20260503100126 | 54 | 57 | 0.9 | 1.7 | 0.00 | 0.00 | 0.00 | 82 | |
| 20260503081516 | 58 | 87 | 0.0 | 1.7 | 0.00 | 0.00 | 0.00 | 69 | |
| 20260503081013 | 58 | 67 | 0.0 | 1.7 | 0.00 | 0.00 | 0.00 | 70 | |
| 20260503080509 | 58 | 52 | 1.7 | 2.6 | 0.00 | 0.00 | 0.00 | 71 | |
| 20260503072443 | 59 | 56 | 0.9 | 1.7 | 0.00 | 0.00 | 0.00 | 70 | |
| 20260503071940 | 58 | 72 | 1.7 | 2.6 | 0.00 | 0.00 | 0.00 | 74 | |
| 20260503071437 | 57 | 62 | 0.9 | 1.7 | 0.00 | 0.00 | 0.00 | 74 | |
| 20260503070933 | 57 | 76 | 0.0 | 1.7 | 0.00 | 0.00 | 0.00 | 73 | |
| 20260503070430 | 58 | 73 | 0.9 | 1.7 | 0.00 | 0.00 | 0.00 | 72 | |
| 20260503054844 | 62 | 98 | 0.9 | 2.6 | 0.00 | 0.00 | 0.00 | 58 | |
| 20260503054339 | 61 | 93 | 0.9 | 2.6 | 0.00 | 0.00 | 0.00 | 62 | |
| 20260503053837 | 62 | 89 | 0.0 | 1.7 | 0.00 | 0.00 | 0.00 | 62 | |
| 20260503053336 | 63 | 88 | 0.9 | 1.7 | 0.00 | 0.00 | 0.00 | 59 | |
| 20260503052832 | 64 | 217 | 0.0 | 0.9 | 0.00 | 0.00 | 0.00 | 57 | |
| 20260503052329 | 63 | 76 | 0.9 | 1.7 | 0.00 | 0.00 | 0.00 | 56 | |
| 20260503051825 | 63 | 89 | 0.0 | 1.7 | 0.00 | 0.00 | 0.00 | 57 | |
| 20260503051321 | 64 | 94 | 0.9 | 2.6 | 0.00 | 0.00 | 0.00 | 56 | |
| 20260503050818 | 64 | 78 | 0.0 | 1.7 | 0.00 | 0.00 | 0.00 | 56 | |
| 20260503050314 | 63 | 47 | 1.7 | 3.5 | 0.00 | 0.00 | 0.00 | 57 | |
| 20260503045812 | 62 | 71 | 0.0 | 1.7 | 0.00 | 0.00 | 0.00 | 59 | |
| 20260503045310 | 63 | 108 | 0.0 | 1.7 | 0.00 | 0.00 | 0.00 | 62 | |
| 20260503044806 | 64 | 23 | 0.0 | 1.7 | 0.00 | 0.00 | 0.00 | 57 | |
| 20260503044303 | 64 | 132 | 0.0 | 1.7 | 0.00 | 0.00 | 0.00 | 55 | |
| 20260503043800 | 63 | 83 | 1.7 | 2.6 | 0.00 | 0.00 | 0.00 | 57 | |
| 20260503043257 | 63 | 101 | 0.0 | 2.6 | 0.00 | 0.00 | 0.00 | 63 | |
| 20260503042753 | 64 | 255 | 0.9 | 1.7 | 0.00 | 0.00 | 0.00 | 60 | |
| 20260503042250 | 64 | 74 | 0.0 | 2.6 | 0.00 | 0.00 | 0.00 | 58 | |
| 20260503041745 | 63 | 261 | 0.9 | 2.6 | 0.00 | 0.00 | 0.00 | 60 | |
| 20260503041244 | 63 | 334 | 1.7 | 1.7 | 0.00 | 0.00 | 0.00 | 61 | |
| 20260503040741 | 65 | 201 | 0.0 | 2.6 | 0.00 | 0.00 | 0.00 | 61 | |
| 20260503040239 | 66 | 301 | 1.7 | 3.5 | 0.00 | 0.00 | 0.00 | 53 | |
| 20260503035735 | 66 | 312 | 2.6 | 7.0 | 0.00 | 0.00 | 0.00 | 53 | |
| 20260503035233 | 66 | 311 | 0.9 | 4.3 | 0.00 | 0.00 | 0.00 | 53 | |
| 20260503034730 | 66 | 14 | 1.7 | 7.0 | 0.00 | 0.00 | 0.00 | 53 | |
| 20260503034227 | 66 | 300 | 1.7 | 5.2 | 0.00 | 0.00 | 0.00 | 54 | |
| 20260503033724 | 66 | 356 | 0.9 | 6.1 | 0.00 | 0.00 | 0.00 | 54 | |
| 20260503033221 | 66 | 333 | 3.5 | 4.3 | 0.00 | 0.00 | 0.00 | 56 | |
| 20260503032720 | 66 | 295 | 5.2 | 6.1 | 0.00 | 0.00 | 0.00 | 56 | |
| 20260503032218 | 66 | 309 | 0.9 | 7.0 | 0.00 | 0.00 | 0.00 | 57 | |
| 20260503031714 | 66 | 312 | 2.6 | 5.2 | 0.00 | 0.00 | 0.00 | 57 | |
| 20260503031208 | 66 | 14 | 0.9 | 3.5 | 0.00 | 0.00 | 0.00 | 57 | |
| 20260503030703 | 66 | 332 | 2.6 | 4.3 | 0.00 | 0.00 | 0.00 | 56 | |
| 20260503030200 | 67 | 39 | 1.7 | 5.2 | 0.00 | 0.00 | 0.00 | 56 | |
| 20260503025657 | 67 | 318 | 1.7 | 8.7 | 0.00 | 0.00 | 0.00 | 57 | |
| 20260503025155 | 67 | 308 | 3.5 | 7.8 | 0.00 | 0.00 | 0.00 | 57 | |
| 20260503024651 | 67 | 322 | 3.5 | 6.1 | 0.00 | 0.00 | 0.00 | 58 | |
| 20260503024148 | 66 | 282 | 1.7 | 3.5 | 0.00 | 0.00 | 0.00 | 58 | |
| 20260503023645 | 66 | 276 | 2.6 | 7.8 | 0.00 | 0.00 | 0.00 | 58 | |
| 20260503023142 | 67 | 308 | 4.3 | 7.8 | 0.00 | 0.00 | 0.00 | 58 | |
| 20260503022638 | 67 | 294 | 6.1 | 11.3 | 0.00 | 0.00 | 0.00 | 57 | |
| 20260503022137 | 67 | 305 | 3.5 | 8.7 | 0.00 | 0.00 | 0.00 | 57 | |
| 20260503021635 | 68 | 331 | 2.6 | 4.3 | 0.00 | 0.00 | 0.00 | 56 | |
| 20260503021131 | 68 | 307 | 6.1 | 13.0 | 0.00 | 0.00 | 0.00 | 56 | |
| 20260503020628 | 68 | 316 | 1.7 | 12.2 | 0.00 | 0.00 | 0.00 | 56 | |
| 20260503020126 | 67 | 305 | 7.0 | 9.6 | 0.00 | 0.00 | 0.00 | 57 | |
| 20260503015622 | 65 | 318 | 7.8 | 12.2 | 0.00 | 0.00 | 0.00 | 61 | |
| 20260503015120 | 66 | 329 | 1.7 | 6.1 | 0.00 | 0.00 | 0.00 | 62 | |
| 20260503014615 | 68 | 239 | 0.9 | 6.1 | 0.00 | 0.00 | 0.00 | 59 | |
| 20260503014113 | 68 | 299 | 4.3 | 8.7 | 0.00 | 0.00 | 0.00 | 57 | |
| 20260503013610 | 68 | 299 | 6.1 | 8.7 | 0.00 | 0.00 | 0.00 | 57 | |
| 20260503013108 | 68 | 323 | 5.2 | 13.9 | 0.00 | 0.00 | 0.00 | 56 | |
| 20260503012605 | 70 | 317 | 5.2 | 10.4 | 0.00 | 0.00 | 0.00 | 51 | |
| 20260503012102 | 70 | 316 | 3.5 | 11.3 | 0.00 | 0.00 | 0.00 | 51 | |
| 20260503011558 | 70 | 301 | 4.3 | 7.0 | 0.00 | 0.00 | 0.00 | 51 | |
| 20260503011056 | 70 | 311 | 5.2 | 13.0 | 0.00 | 0.00 | 0.00 | 51 | |
| 20260503010551 | 69 | 294 | 5.2 | 8.7 | 0.00 | 0.00 | 0.00 | 52 | |
| 20260503010050 | 69 | 315 | 3.5 | 11.3 | 0.00 | 0.00 | 0.00 | 51 | |
| 20260503005546 | 70 | 320 | 4.3 | 13.0 | 0.00 | 0.00 | 0.00 | 51 | |
| 20260503005044 | 70 | 315 | 4.3 | 17.4 | 0.00 | 0.00 | 0.00 | 49 | |
| 20260503004539 | 71 | 55 | 1.7 | 9.6 | 0.00 | 0.00 | 0.00 | 49 | |
| 20260503004038 | 71 | 12 | 3.5 | 11.3 | 0.00 | 0.00 | 0.00 | 49 | |
| 20260503003534 | 70 | 327 | 4.3 | 13.9 | 0.00 | 0.00 | 0.00 | 49 | |
| 20260503003032 | 70 | 1 | 5.2 | 11.3 | 0.00 | 0.00 | 0.00 | 50 | |
| 20260503002528 | 70 | 12 | 3.5 | 14.8 | 0.00 | 0.00 | 0.00 | 51 | |
| 20260503002025 | 70 | 137 | 1.7 | 12.2 | 0.00 | 0.00 | 0.00 | 49 |